Regional Weather Roundup
Issued by NWS

Home | Current Version | Previous Version | Text Only | Print | Product List | Glossary On
Versions: 1 2 3 4 5 6 7 8 9 10 11 12 13 14 15 16 17 18 19 20 21 22 23 24 25 26 27 28 29 30 31 32 33 34 35 36 37 38 39 40 41 42 43 44 45 46 47 48 49 50
686
ASUS43 KLSX 241459
RWRMO

WEATHER SUMMARY FOR MISSOURI
NATIONAL WEATHER SERVICE SPRINGFIELD MO
1000 AM CDT FRI MAR 24 2017

NOTE: "FAIR" INDICATES FEW OR NO CLOUDS BELOW 12,000 FEET WITH NO
       SIGNIFICANT WEATHER AND/OR OBSTRUCTIONS TO VISIBILITY.
       CURRENT SKY AND/OR WEATHER CONDITIONS ARE NOT AVAILABLE FOR
       CHILLICOTHE AND FARMINGTON.

MOZ001>031-035>038-043-044-053-054-241600-
...NORTHERN AND WESTERN MISSOURI...

CITY           SKY/WX    TMP DP  RH WIND       PRES   REMARKS
KANSAS CTY INT LGT RAIN  69  43  38 S12G21    29.83R
KANSAS C DTWN  CLOUDY    70  42  36 S14G23    29.82R
LEE`S SUMMIT   CLOUDY    67  43  41 S16G24    29.84R
ST JOSEPH      TSTM      58  54  86 S8        29.84R
CHILLICOTHE      N/A     67  48  50 S7        29.86S
KIRKSVILLE     MOSUNNY   70  32  24 S16       29.89R

$$
MOZ066>068-077>081-088>096-101>105-241600-
...SOUTHWEST MISSOURI...

CITY           SKY/WX    TMP DP  RH WIND       PRES   REMARKS
SPRINGFIELD    MOSUNNY   67  47  48 S22G31    29.93R
JOPLIN         CLOUDY    67  49  52 S24G32    29.89R
BRANSON        PTSUNNY   68  48  49 S18G28    29.99R

$$
MOZ032>034-039>042-045>050-055>058-069>072-241600-
...CENTRAL MISSOURI...

CITY           SKY/WX    TMP DP  RH WIND       PRES   REMARKS
COLUMBIA       MOSUNNY   72  49  44 S21G31    29.91S
JEFFERSON CITY MOSUNNY   74  50  42 S15       29.92S
ROLLA          SUNNY     71  52  50 S23G30    29.94F
SEDALIA        PTSUNNY   73  46  38 S24G33    29.89R
WARRENSBURG    CLOUDY    68  39  34 S14G25    29.85S
OSAGE BEACH    PTSUNNY  N/A N/A N/A S17G26    29.93R

$$
MOZ051-052-059>065-241600-
...EAST CENTRAL MISSOURI...

CITY           SKY/WX    TMP DP  RH WIND       PRES   REMARKS
ST LOUIS INTL  PTSUNNY   73  54  51 S15G23    30.00S
SPIRIT OF STL  MOSUNNY   72  54  53 S13G20    29.98S
ST CHARLES     SUNNY     72  54  53 S15       29.99S

$$
MOZ072>076-082>087-097>100-106>115-241600-
...SOUTH CENTRAL AND SOUTHEAST MISSOURI...

CITY           SKY/WX    TMP DP  RH WIND       PRES   REMARKS
CAPE GIRARDEAU PTSUNNY   67  58  72 S17G26    30.13R
FARMINGTON     CLOUDY    65  56  72 S17G28    30.07S
POPLAR BLUFF   CLOUDY    66  59  78 S21G28    30.12R
WEST PLAINS    MOSUNNY   66  55  67 S20G28    30.05R

$$




USA.gov is the U.S. government's official web portal to all federal, state and local government web resources and services.